Time,TemperatureF,DewpointF,PressureIn,WindDirection,WindDirectionDegrees,WindSpeedMPH,WindSpeedGustMPH,Humidity,HourlyPrecipIn,Conditions,Clouds,dailyrainin,SoftwareType,DateUTC
2013-03-30 00:02:00,54.0,49.0,30.15,ESE,117,1.0,7.0,84,0.00,,,0.07,,2013-03-30 05:02:00,
2013-03-30 00:12:00,54.0,49.0,30.15,ESE,117,1.0,7.0,84,0.00,,,0.07,,2013-03-30 05:12:00,
2013-03-30 00:22:00,54.0,49.0,30.15,SE,139,1.0,4.0,84,0.00,,,0.07,,2013-03-30 05:22:00,
2013-03-30 00:32:00,54.0,50.0,30.15,SSE,153,2.0,4.0,85,0.00,,,0.07,,2013-03-30 05:32:00,
2013-03-30 00:42:00,54.0,50.0,30.15,SSE,153,2.0,4.0,85,0.00,,,0.07,,2013-03-30 05:42:00,
2013-03-30 00:52:00,54.0,50.0,30.15,SE,124,1.0,4.0,85,0.00,,,0.07,,2013-03-30 05:52:00,
2013-03-30 01:02:00,53.0,49.0,30.14,ESE,107,2.0,5.0,86,0.00,,,0.07,,2013-03-30 06:02:00,
2013-03-30 01:12:00,53.0,49.0,30.14,ESE,107,2.0,5.0,86,0.00,,,0.07,,2013-03-30 06:12:00,
2013-03-30 01:22:00,53.0,49.0,30.14,ESE,104,4.0,6.0,86,0.00,,,0.07,,2013-03-30 06:22:00,
2013-03-30 01:32:00,53.0,49.0,30.14,ESE,120,2.0,5.0,87,0.00,,,0.07,,2013-03-30 06:32:00,
2013-03-30 01:42:00,53.0,49.0,30.14,ESE,120,2.0,5.0,87,0.00,,,0.07,,2013-03-30 06:42:00,
2013-03-30 01:52:00,53.0,49.0,30.14,ESE,123,3.0,6.0,87,0.00,,,0.07,,2013-03-30 06:52:00,
2013-03-30 02:02:00,52.0,49.0,30.13,ESE,107,0.0,5.0,88,0.00,,,0.07,,2013-03-30 07:02:00,
2013-03-30 02:12:00,52.0,49.0,30.13,ESE,107,0.0,5.0,88,0.00,,,0.07,,2013-03-30 07:12:00,
2013-03-30 02:22:00,52.0,49.0,30.12,ESE,118,1.0,3.0,89,0.00,,,0.07,,2013-03-30 07:22:00,
2013-03-30 02:32:00,52.0,49.0,30.11,SE,128,2.0,6.0,90,0.00,,,0.07,,2013-03-30 07:32:00,
2013-03-30 02:42:00,52.0,49.0,30.11,SE,128,2.0,6.0,90,0.00,,,0.07,,2013-03-30 07:42:00,
2013-03-30 02:52:00,51.0,48.0,30.11,East,100,1.0,4.0,91,0.00,,,0.07,,2013-03-30 07:52:00,
2013-03-30 03:02:00,51.0,48.0,30.11,East,87,0.0,2.0,91,0.00,,,0.07,,2013-03-30 08:02:00,
2013-03-30 03:12:00,51.0,48.0,30.11,East,87,0.0,2.0,91,0.00,,,0.07,,2013-03-30 08:12:00,
2013-03-30 03:21:00,51.0,49.0,30.12,SE,132,2.0,5.0,92,0.00,,,0.07,,2013-03-30 08:21:00,
2013-03-30 03:32:00,51.0,49.0,30.12,ESE,105,1.0,5.0,92,0.00,,,0.07,,2013-03-30 08:32:00,
2013-03-30 03:42:00,51.0,49.0,30.12,ESE,105,1.0,5.0,92,0.00,,,0.07,,2013-03-30 08:42:00,
2013-03-30 03:52:00,51.0,49.0,30.11,SE,134,1.0,5.0,92,0.00,,,0.07,,2013-03-30 08:52:00,
2013-03-30 04:02:00,51.0,49.0,30.11,ESE,118,2.0,4.0,92,0.00,,,0.07,,2013-03-30 09:02:00,
2013-03-30 04:12:00,51.0,49.0,30.10,East,94,2.0,4.0,92,0.00,,,0.07,,2013-03-30 09:12:00,
2013-03-30 04:22:00,51.0,49.0,30.10,East,94,2.0,4.0,92,0.00,,,0.07,,2013-03-30 09:22:00,
2013-03-30 04:43:00,51.0,49.0,30.10,SE,132,1.0,4.0,92,0.00,,,0.07,,2013-03-30 09:43:00,
2013-03-30 04:53:00,51.0,48.0,30.09,ESE,117,0.0,2.0,91,0.00,,,0.07,,2013-03-30 09:53:00,
2013-03-30 05:02:00,51.0,48.0,30.10,ESE,116,1.0,5.0,91,0.00,,,0.07,,2013-03-30 10:02:00,
2013-03-30 05:13:00,51.0,48.0,30.10,ESE,116,1.0,5.0,91,0.00,,,0.07,,2013-03-30 10:13:00,
2013-03-30 05:23:00,51.0,48.0,30.09,ESE,107,1.0,4.0,91,0.00,,,0.07,,2013-03-30 10:23:00,
2013-03-30 05:33:00,51.0,48.0,30.09,ESE,117,2.0,3.0,91,0.00,,,0.07,,2013-03-30 10:33:00,
2013-03-30 05:42:00,51.0,48.0,30.09,ESE,117,2.0,3.0,91,0.00,,,0.07,,2013-03-30 10:42:00,
2013-03-30 05:52:00,51.0,48.0,30.09,ESE,107,0.0,3.0,91,0.00,,,0.07,,2013-03-30 10:52:00,
2013-03-30 06:03:00,51.0,48.0,30.09,ENE,60,1.0,4.0,90,0.00,,,0.07,,2013-03-30 11:03:00,
2013-03-30 06:12:00,51.0,48.0,30.09,ENE,60,1.0,4.0,90,0.00,,,0.07,,2013-03-30 11:12:00,
2013-03-30 06:22:00,51.0,48.0,30.08,East,99,3.0,8.0,88,0.00,,,0.07,,2013-03-30 11:22:00,
2013-03-30 06:33:00,51.0,48.0,30.08,ESE,120,3.0,9.0,88,0.00,,,0.07,,2013-03-30 11:33:00,
2013-03-30 06:42:00,51.0,48.0,30.08,ESE,120,3.0,9.0,88,0.00,,,0.07,,2013-03-30 11:42:00,
2013-03-30 06:52:00,51.0,48.0,30.08,SE,129,3.0,8.0,88,0.00,,,0.07,,2013-03-30 11:52:00,
2013-03-30 07:02:00,51.0,47.0,30.08,SE,135,3.0,8.0,87,0.00,,,0.07,,2013-03-30 12:02:00,
2013-03-30 07:12:00,51.0,47.0,30.08,SE,135,3.0,8.0,87,0.00,,,0.07,,2013-03-30 12:12:00,
2013-03-30 07:22:00,51.0,47.0,30.09,SE,130,2.0,5.0,87,0.00,,,0.07,,2013-03-30 12:22:00,
2013-03-30 07:32:00,51.0,47.0,30.09,SE,126,3.0,5.0,87,0.00,,,0.04,,2013-03-30 12:32:00,
2013-03-30 07:42:00,51.0,47.0,30.09,SE,126,3.0,5.0,87,0.00,,,0.04,,2013-03-30 12:42:00,
2013-03-30 07:52:00,51.0,47.0,30.09,SE,132,0.0,5.0,87,0.00,,,0.04,,2013-03-30 12:52:00,
2013-03-30 08:02:00,51.0,47.0,30.09,ESE,103,3.0,7.0,87,0.00,,,0.04,,2013-03-30 13:02:00,
2013-03-30 08:12:00,51.0,47.0,30.09,ESE,103,3.0,7.0,87,0.00,,,0.04,,2013-03-30 13:12:00,
2013-03-30 08:22:00,51.0,47.0,30.09,ESE,103,3.0,7.0,87,0.00,,,0.04,,2013-03-30 13:22:00,
2013-03-30 08:32:00,51.0,47.0,30.09,SE,134,3.0,6.0,87,0.00,,,0.04,,2013-03-30 13:32:00,
2013-03-30 08:43:00,51.0,47.0,30.09,SE,134,3.0,6.0,87,0.00,,,0.04,,2013-03-30 13:43:00,
2013-03-30 08:52:00,51.0,47.0,30.09,ESE,102,5.0,12.0,87,0.00,,,0.04,,2013-03-30 13:52:00,
2013-03-30 09:02:00,51.0,47.0,30.08,ENE,66,2.0,6.0,87,0.00,,,0.04,,2013-03-30 14:02:00,
2013-03-30 09:11:00,51.0,47.0,30.08,ENE,66,2.0,6.0,87,0.00,,,0.04,,2013-03-30 14:11:00,
2013-03-30 09:22:00,51.0,47.0,30.09,SE,134,2.0,7.0,87,0.00,,,0.04,,2013-03-30 14:22:00,
2013-03-30 09:32:00,51.0,47.0,30.08,East,100,3.0,8.0,87,0.00,,,0.01,,2013-03-30 14:32:00,
2013-03-30 09:42:00,51.0,47.0,30.08,East,100,3.0,8.0,87,0.00,,,0.01,,2013-03-30 14:42:00,
2013-03-30 09:52:00,51.0,47.0,30.08,ESE,108,4.0,10.0,87,0.00,,,0.01,,2013-03-30 14:52:00,
2013-03-30 10:02:00,52.0,48.0,30.07,NNE,30,1.0,7.0,87,0.00,,,0.01,,2013-03-30 15:02:00,
2013-03-30 10:12:00,52.0,48.0,30.07,NNE,30,1.0,7.0,87,0.00,,,0.01,,2013-03-30 15:12:00,
2013-03-30 10:22:00,52.0,48.0,30.06,SE,132,2.0,7.0,86,0.00,,,0.01,,2013-03-30 15:22:00,
2013-03-30 10:33:00,52.0,48.0,30.06,East,91,3.0,11.0,87,0.00,,,0.00,,2013-03-30 15:33:00,
2013-03-30 10:43:00,52.0,48.0,30.06,East,91,3.0,11.0,87,0.00,,,0.00,,2013-03-30 15:43:00,
2013-03-30 10:52:00,52.0,48.0,30.07,SE,134,2.0,9.0,87,0.00,,,0.00,,2013-03-30 15:52:00,
2013-03-30 11:03:00,52.0,48.0,30.06,ESE,122,4.0,10.0,86,0.00,,,0.00,,2013-03-30 16:03:00,
2013-03-30 11:13:00,52.0,48.0,30.06,ESE,116,5.0,12.0,86,0.00,,,0.00,,2013-03-30 16:13:00,
2013-03-30 11:23:00,52.0,48.0,30.06,ESE,116,5.0,12.0,86,0.00,,,0.00,,2013-03-30 16:23:00,
2013-03-30 11:33:00,53.0,49.0,30.06,ESE,105,3.0,8.0,87,0.00,,,0.00,,2013-03-30 16:33:00,
2013-03-30 11:43:00,53.0,49.0,30.06,ESE,105,3.0,8.0,87,0.00,,,0.00,,2013-03-30 16:43:00,
2013-03-30 11:52:00,52.0,49.0,30.07,South,176,2.0,4.0,88,0.00,,,0.00,,2013-03-30 16:52:00,
2013-03-30 12:02:00,53.0,49.0,30.07,SSE,162,3.0,6.0,87,0.00,,,0.00,,2013-03-30 17:02:00,
2013-03-30 12:13:00,53.0,49.0,30.07,SSE,162,3.0,6.0,87,0.00,,,0.00,,2013-03-30 17:13:00,
2013-03-30 12:22:00,52.0,49.0,30.07,WSW,257,0.0,4.0,90,0.00,,,0.00,,2013-03-30 17:22:00,
2013-03-30 12:32:00,52.0,49.0,30.06,WSW,243,0.0,3.0,91,0.02,,,0.02,,2013-03-30 17:32:00,
2013-03-30 12:42:00,52.0,49.0,30.06,WSW,243,0.0,3.0,91,0.02,,,0.02,,2013-03-30 17:42:00,
2013-03-30 12:52:00,53.0,51.0,30.04,ESE,110,2.0,4.0,93,0.02,,,0.02,,2013-03-30 17:52:00,
2013-03-30 13:03:00,53.0,50.0,30.02,East,101,2.0,6.0,91,0.02,,,0.02,,2013-03-30 18:03:00,
2013-03-30 13:12:00,55.0,52.0,29.99,SE,126,7.0,10.0,89,0.01,,,0.02,,2013-03-30 18:12:00,
2013-03-30 13:22:00,55.0,52.0,29.99,SE,126,7.0,10.0,89,0.01,,,0.02,,2013-03-30 18:22:00,
2013-03-30 13:32:00,56.0,52.0,29.96,SE,141,7.0,18.0,87,0.00,,,0.02,,2013-03-30 18:32:00,
2013-03-30 13:42:00,56.0,52.0,29.96,SE,141,7.0,18.0,87,0.00,,,0.02,,2013-03-30 18:42:00,
2013-03-30 13:53:00,56.0,52.0,29.95,SSE,150,9.0,20.0,85,0.00,,,0.02,,2013-03-30 18:53:00,
2013-03-30 14:03:00,57.0,52.0,29.95,SSE,163,6.0,14.0,84,0.00,,,0.02,,2013-03-30 19:03:00,
2013-03-30 14:13:00,57.0,52.0,29.95,SSE,163,6.0,14.0,84,0.00,,,0.02,,2013-03-30 19:13:00,
2013-03-30 14:22:00,57.0,52.0,29.95,SE,132,8.0,15.0,82,0.00,,,0.02,,2013-03-30 19:22:00,
2013-03-30 14:32:00,58.0,53.0,29.95,SSE,153,6.0,12.0,82,0.00,,,0.02,,2013-03-30 19:32:00,
2013-03-30 14:42:00,58.0,53.0,29.95,SSE,153,6.0,12.0,82,0.00,,,0.02,,2013-03-30 19:42:00,
2013-03-30 14:52:00,58.0,53.0,29.95,SSE,155,2.0,11.0,83,0.00,,,0.02,,2013-03-30 19:52:00,
2013-03-30 15:02:00,59.0,54.0,29.94,ESE,114,2.0,6.0,82,0.00,,,0.02,,2013-03-30 20:02:00,
2013-03-30 15:12:00,59.0,54.0,29.94,ESE,114,2.0,6.0,82,0.00,,,0.02,,2013-03-30 20:12:00,
2013-03-30 15:22:00,59.0,54.0,29.93,SE,126,1.0,5.0,82,0.00,,,0.02,,2013-03-30 20:22:00,
2013-03-30 15:32:00,58.0,53.0,29.93,East,100,3.0,6.0,82,0.00,,,0.02,,2013-03-30 20:32:00,
2013-03-30 15:42:00,58.0,53.0,29.93,East,100,3.0,6.0,82,0.00,,,0.02,,2013-03-30 20:42:00,
2013-03-30 15:52:00,59.0,54.0,29.92,SE,136,3.0,6.0,82,0.00,,,0.02,,2013-03-30 20:52:00,
2013-03-30 16:02:00,61.0,54.0,29.91,ESE,105,3.0,7.0,79,0.00,,,0.02,,2013-03-30 21:02:00,
2013-03-30 16:12:00,61.0,54.0,29.91,ESE,105,3.0,7.0,79,0.00,,,0.02,,2013-03-30 21:12:00,
2013-03-30 16:22:00,63.0,56.0,29.91,East,92,1.0,6.0,77,0.00,,,0.02,,2013-03-30 21:22:00,
2013-03-30 16:33:00,64.0,56.0,29.91,ESE,108,4.0,8.0,74,0.00,,,0.02,,2013-03-30 21:33:00,
2013-03-30 16:43:00,64.0,56.0,29.91,ESE,108,4.0,8.0,74,0.00,,,0.02,,2013-03-30 21:43:00,
2013-03-30 16:52:00,64.0,55.0,29.90,ESE,103,3.0,7.0,73,0.00,,,0.02,,2013-03-30 21:52:00,
2013-03-30 17:03:00,64.0,55.0,29.89,NNE,32,1.0,5.0,72,0.00,,,0.02,,2013-03-30 22:03:00,
2013-03-30 17:13:00,64.0,55.0,29.89,NNE,32,1.0,5.0,72,0.00,,,0.02,,2013-03-30 22:13:00,
2013-03-30 17:23:00,64.0,55.0,29.88,NE,51,3.0,8.0,72,0.00,,,0.02,,2013-03-30 22:23:00,
2013-03-30 17:33:00,64.0,55.0,29.88,ENE,63,4.0,7.0,72,0.00,,,0.02,,2013-03-30 22:33:00,
2013-03-30 17:43:00,64.0,55.0,29.88,ENE,63,4.0,7.0,72,0.00,,,0.02,,2013-03-30 22:43:00,
2013-03-30 17:53:00,64.0,55.0,29.88,NE,47,2.0,7.0,73,0.00,,,0.02,,2013-03-30 22:53:00,
2013-03-30 18:02:00,64.0,55.0,29.88,East,89,4.0,7.0,73,0.00,,,0.02,,2013-03-30 23:02:00,
2013-03-30 18:12:00,64.0,55.0,29.88,East,89,4.0,7.0,73,0.00,,,0.02,,2013-03-30 23:12:00,
2013-03-30 18:22:00,63.0,55.0,29.87,ENE,75,5.0,9.0,74,0.00,,,0.02,,2013-03-30 23:22:00,
2013-03-30 18:32:00,63.0,55.0,29.87,ENE,75,5.0,9.0,74,0.00,,,0.02,,2013-03-30 23:32:00,
2013-03-30 18:42:00,63.0,55.0,29.87,ENE,75,5.0,9.0,74,0.00,,,0.02,,2013-03-30 23:42:00,
2013-03-30 18:52:00,63.0,55.0,29.87,NE,34,3.0,8.0,76,0.00,,,0.02,,2013-03-30 23:52:00,
2013-03-30 19:02:00,63.0,55.0,29.87,ESE,103,2.0,6.0,76,0.00,,,0.02,,2013-03-31 00:02:00,
2013-03-30 19:12:00,63.0,55.0,29.87,ESE,103,2.0,6.0,76,0.00,,,0.02,,2013-03-31 00:12:00,
2013-03-30 19:22:00,62.0,54.0,29.87,ENE,72,1.0,7.0,76,0.00,,,0.02,,2013-03-31 00:22:00,
2013-03-30 19:32:00,61.0,54.0,29.87,ENE,78,5.0,11.0,78,0.00,,,0.02,,2013-03-31 00:32:00,
2013-03-30 19:42:00,61.0,54.0,29.87,ENE,78,5.0,11.0,78,0.00,,,0.02,,2013-03-31 00:42:00,
2013-03-30 19:52:00,60.0,54.0,29.88,East,99,3.0,9.0,81,0.00,,,0.02,,2013-03-31 00:52:00,
2013-03-30 20:02:00,59.0,54.0,29.88,SE,143,1.0,6.0,83,0.00,,,0.02,,2013-03-31 01:02:00,
2013-03-30 20:12:00,59.0,54.0,29.88,SE,143,1.0,6.0,83,0.00,,,0.02,,2013-03-31 01:12:00,
2013-03-30 20:22:00,59.0,54.0,29.88,ESE,121,2.0,6.0,84,0.00,,,0.02,,2013-03-31 01:22:00,
2013-03-30 20:32:00,58.0,53.0,29.88,ESE,122,3.0,7.0,84,0.00,,,0.02,,2013-03-31 01:32:00,
2013-03-30 20:42:00,58.0,53.0,29.88,ESE,122,3.0,7.0,84,0.00,,,0.02,,2013-03-31 01:42:00,
2013-03-30 20:52:00,57.0,53.0,29.88,SE,142,4.0,9.0,86,0.00,,,0.02,,2013-03-31 01:52:00,
2013-03-30 21:02:00,57.0,53.0,29.89,ESE,115,1.0,8.0,87,0.00,,,0.02,,2013-03-31 02:02:00,
2013-03-30 21:12:00,57.0,53.0,29.89,ESE,115,1.0,8.0,87,0.00,,,0.02,,2013-03-31 02:12:00,
2013-03-30 21:22:00,57.0,53.0,29.90,SE,129,0.0,5.0,88,0.00,,,0.02,,2013-03-31 02:22:00,
2013-03-30 21:32:00,57.0,53.0,29.90,ESE,109,1.0,3.0,88,0.00,,,0.02,,2013-03-31 02:32:00,
2013-03-30 21:42:00,57.0,53.0,29.90,ESE,109,1.0,3.0,88,0.00,,,0.02,,2013-03-31 02:42:00,
2013-03-30 21:52:00,56.0,53.0,29.91,NE,53,1.0,4.0,89,0.00,,,0.02,,2013-03-31 02:52:00,
2013-03-30 22:02:00,56.0,54.0,29.96,NW,309,1.0,14.0,92,0.06,,,0.08,,2013-03-31 03:02:00,
2013-03-30 22:12:00,56.0,54.0,29.96,NW,309,1.0,14.0,92,0.06,,,0.08,,2013-03-31 03:12:00,
2013-03-30 22:22:00,56.0,54.0,29.96,NW,311,2.0,6.0,93,0.19,,,0.21,,2013-03-31 03:22:00,
2013-03-30 22:33:00,55.0,53.0,29.92,ESE,114,1.0,4.0,92,0.26,,,0.28,,2013-03-31 03:33:00,
2013-03-30 22:43:00,55.0,53.0,29.92,ESE,114,1.0,4.0,92,0.26,,,0.28,,2013-03-31 03:43:00,
2013-03-30 22:53:00,55.0,53.0,29.85,ESE,116,6.0,10.0,92,0.31,,,0.34,,2013-03-31 03:53:00,
2013-03-30 23:03:00,55.0,-99.9,29.88,WNW,285,0.0,4.0,89,0.25,,,0.34,,2013-03-31 04:03:00,
2013-03-30 23:13:00,55.0,52.0,29.88,WNW,285,0.0,4.0,89,0.25,,,0.34,,2013-03-31 04:13:00,
2013-03-30 23:23:00,54.0,52.0,29.88,NE,53,0.0,1.0,92,0.13,,,0.34,,2013-03-31 04:23:00,
2013-03-30 23:32:00,54.0,53.0,29.90,WSW,243,3.0,6.0,95,0.06,,,0.34,,2013-03-31 04:32:00,
2013-03-30 23:42:00,54.0,53.0,29.90,WSW,243,3.0,6.0,95,0.06,,,0.34,,2013-03-31 04:42:00,
2013-03-30 23:52:00,54.0,53.0,29.91,SW,236,1.0,4.0,95,0.00,,,0.34,,2013-03-31 04:52:00,